| time (UTC) | temp C | wind direction | speed KPH | gust KPH | rain 1hr cm | rain 24hr cm | rain mn cm | humidity % | barometer mb |
| 20260906220110 | 28 | 0 | 0.0 | 1.6 | 0.00 | 0.00 | 0.00 | 40 | 1017.7 |
| 20260906214540 | 28 | 0 | 0.0 | 1.6 | 0.00 | 0.00 | 0.00 | 39 | 1017.9 |
| 20260906213044 | 28 | 0 | 0.0 | 3.2 | 0.00 | 0.00 | 0.00 | 39 | 1018.4 |
| 20260906211540 | 28 | 120 | 0.0 | 1.6 | 0.00 | 0.00 | 0.00 | 38 | 1018.6 |
| 20260906210052 | 28 | 332 | 0.0 | 4.8 | 0.00 | 0.00 | 0.00 | 37 | 1018.7 |
| 20260906204534 | 29 | 0 | 0.0 | 1.6 | 0.00 | 0.00 | 0.00 | 36 | 1018.7 |
| 20260906203037 | 30 | 122 | 0.0 | 4.8 | 0.00 | 0.00 | 0.00 | 33 | 1019.0 |
| 20260906201535 | 30 | 0 | 0.0 | 3.2 | 0.00 | 0.00 | 0.00 | 34 | 1019.2 |
| 20260906200045 | 31 | 0 | 0.0 | 3.2 | 0.00 | 0.00 | 0.00 | 34 | 1019.3 |
| 20260906194538 | 30 | 236 | 0.0 | 1.6 | 0.00 | 0.00 | 0.00 | 32 | 1019.3 |
| 20260906193037 | 30 | 0 | 0.0 | 3.2 | 0.00 | 0.00 | 0.00 | 34 | 1019.3 |
| 20260906191535 | 30 | 0 | 0.0 | 4.8 | 0.00 | 0.00 | 0.00 | 32 | 1019.7 |
| 20260906190038 | 30 | 0 | 0.0 | 1.6 | 0.00 | 0.00 | 0.00 | 33 | 1020.0 |
| 20260906184535 | 30 | 0 | 0.0 | 1.6 | 0.00 | 0.00 | 0.00 | 35 | 1020.3 |
| 20260906183039 | 28 | 229 | 0.0 | 1.6 | 0.00 | 0.00 | 0.00 | 36 | 1020.6 |
| 20260906181541 | 27 | 0 | 0.0 | 4.8 | 0.00 | 0.00 | 0.00 | 39 | 1021.1 |
| 20260906180040 | 27 | 0 | 0.0 | 1.6 | 0.00 | 0.00 | 0.00 | 40 | 1021.5 |
| 20260906174538 | 26 | 0 | 0.0 | 1.6 | 0.00 | 0.00 | 0.00 | 40 | 1021.9 |
| 20260906173032 | 25 | 0 | 0.0 | 3.2 | 0.00 | 0.00 | 0.00 | 41 | 1022.1 |
| 20260906171537 | 25 | 267 | 0.0 | 1.6 | 0.00 | 0.00 | 0.00 | 41 | 1022.2 |
| 20260906170042 | 23 | 0 | 0.0 | 1.6 | 0.00 | 0.00 | 0.00 | 43 | 1022.3 |
| 20260906164542 | 23 | 0 | 0.0 | 0.0 | 0.00 | 0.00 | 0.00 | 46 | 1022.4 |
| 20260906163044 | 22 | 0 | 0.0 | 0.0 | 0.00 | 0.00 | 0.00 | 49 | 1022.6 |
| 20260906161539 | 22 | 131 | 0.0 | 1.6 | 0.00 | 0.00 | 0.00 | 51 | 1022.8 |
| 20260906160047 | 21 | 0 | 0.0 | 0.0 | 0.00 | 0.00 | 0.00 | 56 | 1022.7 |
| 20260906154537 | 20 | 0 | 0.0 | 1.6 | 0.00 | 0.00 | 0.00 | 56 | 1022.5 |
| 20260906153043 | 19 | 0 | 0.0 | 0.0 | 0.00 | 0.00 | 0.00 | 65 | 1022.6 |
| 20260906151537 | 18 | 0 | 0.0 | 0.0 | 0.00 | 0.00 | 0.00 | 68 | 1022.6 |
| 20260906150051 | 17 | 0 | 0.0 | 0.0 | 0.00 | 0.00 | 0.00 | 72 | 1022.7 |
| 20260906144543 | 16 | 0 | 0.0 | 0.0 | 0.00 | 0.00 | 0.00 | 77 | 1022.6 |
| 20260906143038 | 14 | 0 | 0.0 | 0.0 | 0.00 | 0.00 | 0.00 | 80 | 1022.7 |
| 20260906141537 | 13 | 0 | 0.0 | 0.0 | 0.00 | 0.00 | 0.00 | 81 | 1022.9 |
| 20260906140036 | 13 | 0 | 0.0 | 0.0 | 0.00 | 0.00 | 0.00 | 81 | 1022.8 |
| 20260906134533 | 13 | 0 | 0.0 | 0.0 | 0.00 | 0.00 | 0.00 | 80 | 1022.5 |
| 20260906133036 | 12 | 0 | 0.0 | 0.0 | 0.00 | 0.00 | 0.00 | 80 | 1022.3 |
| 20260906131538 | 12 | 0 | 0.0 | 0.0 | 0.00 | 0.00 | 0.00 | 80 | 1022.2 |
| 20260906130045 | 12 | 0 | 0.0 | 0.0 | 0.00 | 0.00 | 0.00 | 78 | 1022.3 |
| 20260906124535 | 12 | 0 | 0.0 | 0.0 | 0.00 | 0.00 | 0.00 | 78 | 1022.2 |
| 20260906123037 | 12 | 0 | 0.0 | 0.0 | 0.00 | 0.00 | 0.00 | 78 | 1022.0 |
| 20260906121535 | 13 | 0 | 0.0 | 0.0 | 0.00 | 0.00 | 0.00 | 78 | 1022.1 |
| 20260906120046 | 12 | 0 | 0.0 | 0.0 | 0.00 | 0.00 | 0.00 | 77 | 1022.0 |
| 20260906114538 | 12 | 0 | 0.0 | 0.0 | 0.00 | 0.00 | 0.00 | 77 | 1022.1 |
| 20260906113035 | 13 | 0 | 0.0 | 0.0 | 0.00 | 0.00 | 0.00 | 77 | 1021.9 |
| 20260906111536 | 13 | 0 | 0.0 | 0.0 | 0.00 | 0.00 | 0.00 | 76 | 1021.9 |
| 20260906110040 | 13 | 0 | 0.0 | 0.0 | 0.00 | 0.00 | 0.00 | 76 | 1021.9 |
| 20260906104535 | 13 | 0 | 0.0 | 0.0 | 0.00 | 0.00 | 0.00 | 77 | 1021.7 |
| 20260906103035 | 13 | 0 | 0.0 | 0.0 | 0.00 | 0.00 | 0.00 | 75 | 1021.9 |
| 20260906101533 | 13 | 0 | 0.0 | 0.0 | 0.00 | 0.00 | 0.00 | 75 | 1021.6 |
| 20260906100031 | 13 | 0 | 0.0 | 0.0 | 0.00 | 0.00 | 0.00 | 74 | 1021.6 |
| 20260906094557 | 13 | 0 | 0.0 | 0.0 | 0.00 | 0.00 | 0.00 | 74 | 1021.7 |
| 20260906093038 | 13 | 0 | 0.0 | 0.0 | 0.00 | 0.00 | 0.00 | 74 | 1021.7 |
| 20260906091541 | 14 | 0 | 0.0 | 0.0 | 0.00 | 0.00 | 0.00 | 73 | 1021.7 |
| 20260906090034 | 14 | 0 | 0.0 | 0.0 | 0.00 | 0.00 | 0.00 | 74 | 1021.6 |
| 20260906084539 | 15 | 0 | 0.0 | 0.0 | 0.00 | 0.00 | 0.00 | 72 | 1021.4 |
| 20260906083038 | 15 | 0 | 0.0 | 0.0 | 0.00 | 0.00 | 0.00 | 72 | 1021.6 |
| 20260906081544 | 15 | 0 | 0.0 | 0.0 | 0.00 | 0.00 | 0.00 | 71 | 1021.7 |
| 20260906080038 | 16 | 0 | 0.0 | 0.0 | 0.00 | 0.00 | 0.00 | 70 | 1021.8 |
| 20260906074534 | 16 | 0 | 0.0 | 0.0 | 0.00 | 0.00 | 0.00 | 68 | 1021.8 |
| 20260906073037 | 17 | 0 | 0.0 | 0.0 | 0.00 | 0.00 | 0.00 | 65 | 1021.8 |
| 20260906071537 | 18 | 0 | 0.0 | 0.0 | 0.00 | 0.00 | 0.00 | 64 | 1021.7 |
| 20260906070035 | 18 | 0 | 0.0 | 0.0 | 0.00 | 0.00 | 0.00 | 58 | 1021.4 |
| 20260906064533 | 19 | 0 | 0.0 | 0.0 | 0.00 | 0.00 | 0.00 | 57 | 1021.5 |
| 20260906063037 | 20 | 0 | 0.0 | 0.0 | 0.00 | 0.00 | 0.00 | 54 | 1021.5 |
| 20260906061538 | 20 | 0 | 0.0 | 0.0 | 0.00 | 0.00 | 0.00 | 56 | 1021.5 |
| 20260906060036 | 20 | 0 | 0.0 | 1.6 | 0.00 | 0.00 | 0.00 | 52 | 1021.6 |
| 20260906054537 | 21 | 0 | 0.0 | 1.6 | 0.00 | 0.00 | 0.00 | 52 | 1021.8 |
| 20260906053035 | 20 | 0 | 0.0 | 1.6 | 0.00 | 0.00 | 0.00 | 56 | 1021.7 |
| 20260906051532 | 19 | 0 | 0.0 | 0.0 | 0.00 | 0.00 | 0.00 | 78 | 1021.7 |
| 20260906050038 | 20 | 0 | 0.0 | 0.0 | 0.00 | 0.00 | 0.00 | 77 | 1021.7 |
| 20260906044538 | 19 | 0 | 0.0 | 0.0 | 0.00 | 0.00 | 0.00 | 77 | 1021.7 |
| 20260906043043 | 19 | 0 | 0.0 | 1.6 | 0.00 | 0.00 | 0.00 | 77 | 1021.8 |
| 20260906041538 | 19 | 0 | 0.0 | 0.0 | 0.00 | 0.00 | 0.00 | 77 | 1021.9 |
| 20260906040037 | 19 | 0 | 0.0 | 1.6 | 0.00 | 0.00 | 0.00 | 74 | 1021.9 |
| 20260906034542 | 21 | 0 | 0.0 | 0.0 | 0.00 | 0.00 | 0.00 | 64 | 1021.9 |
| 20260906033035 | 23 | 0 | 0.0 | 0.0 | 0.00 | 0.00 | 0.00 | 49 | 1021.7 |
| 20260906031546 | 22 | 305 | 0.0 | 1.6 | 0.00 | 0.00 | 0.00 | 39 | 1021.3 |
| 20260906030034 | 21 | 0 | 0.0 | 0.0 | 0.00 | 0.00 | 0.00 | 39 | 1020.7 |
| 20260906024533 | 21 | 0 | 0.0 | 0.0 | 0.00 | 0.00 | 0.00 | 40 | 1020.5 |
| 20260906023034 | 21 | 0 | 0.0 | 0.0 | 0.00 | 0.00 | 0.00 | 40 | 1020.3 |
| 20260906021537 | 22 | 0 | 0.0 | 0.0 | 0.00 | 0.00 | 0.00 | 38 | 1020.3 |
| 20260906020049 | 23 | 0 | 0.0 | 0.0 | 0.00 | 0.00 | 0.00 | 37 | 1020.0 |
| 20260906014537 | 23 | 0 | 0.0 | 0.0 | 0.00 | 0.00 | 0.00 | 36 | 1020.0 |
| 20260906013055 | 24 | 0 | 0.0 | 0.0 | 0.00 | 0.00 | 0.00 | 36 | 1019.9 |
| 20260906011535 | 25 | 0 | 0.0 | 0.0 | 0.00 | 0.00 | 0.00 | 33 | 1019.7 |
| 20260906010033 | 26 | 0 | 0.0 | 0.0 | 0.00 | 0.00 | 0.00 | 32 | 1019.9 |
| 20260906004535 | 27 | 0 | 0.0 | 0.0 | 0.00 | 0.00 | 0.00 | 30 | 1019.9 |
| 20260906003034 | 27 | 0 | 0.0 | 0.0 | 0.00 | 0.00 | 0.00 | 28 | 1019.9 |
| 20260906001534 | 28 | 0 | 0.0 | 0.0 | 0.00 | 0.00 | 0.00 | 28 | 1019.8 |
| 20260906000035 | 28 | 0 | 0.0 | 0.0 | 0.00 | 0.00 | 0.00 | 29 | 1019.7 |
| 20260905234538 | 29 | 0 | 0.0 | 0.0 | 0.00 | 0.00 | 0.00 | 27 | 1019.7 |
| 20260905233041 | 29 | 0 | 0.0 | 3.2 | 0.00 | 0.00 | 0.00 | 28 | 1019.6 |
| 20260905231541 | 28 | 0 | 0.0 | 0.0 | 0.00 | 0.00 | 0.00 | 27 | 1019.6 |
| 20260905230036 | 29 | 0 | 0.0 | 0.0 | 0.00 | 0.00 | 0.00 | 27 | 1019.7 |
| 20260905224533 | 29 | 296 | 0.0 | 1.6 | 0.00 | 0.00 | 0.00 | 25 | 1019.6 |
| 20260905223040 | 29 | 0 | 0.0 | 1.6 | 0.00 | 0.00 | 0.00 | 25 | 1019.8 |
| 20260905221544 | 29 | 0 | 0.0 | 0.0 | 0.00 | 0.00 | 0.00 | 29 | 1019.9 |